This is the latest recevied weather packets stored in our database for station/object KD7ECD. If no packets are shown the sender has not sent any weather packets the latest 10 day(s).
| Time | Temp. | Humidity | Pressure | Rain* | Wind** | Luminosity | Snow |
|---|---|---|---|---|---|---|---|
| 1777566461 | 13.89° C | 84% | 1018.1 hPa | 0 mm | - | 599 W/m² | - |
| 1777565859 | 13.33° C | 85% | 1018 hPa | 0 mm | - | 576 W/m² | - |
| 1777565258 | 12.78° C | 87% | 1018.1 hPa | 0 mm | - | 542 W/m² | - |
| 1777564655 | 12.78° C | 88% | 1017.9 hPa | 0 mm | - | 475 W/m² | - |
| 1777564053 | 12.78° C | 89% | 1018 hPa | 0 mm | - | 415 W/m² | - |
| 1777563452 | 12.22° C | 89% | 1017.8 hPa | 0 mm | - | 364 W/m² | - |
| 1777562847 | 11.67° C | 90% | 1017.9 hPa | 0 mm | - | 280 W/m² | - |
| 1777562243 | 11.67° C | 90% | 1018 hPa | 0 mm | - | 262 W/m² | - |
| 1777561637 | 11.67° C | 92% | 1017.8 hPa | 0 mm | - | 386 W/m² | - |
| 1777561033 | 11.11° C | 94% | 1017.7 hPa | 0 mm | - | 143 W/m² | - |
| 1777560432 | 10.56° C | 95% | 1017.7 hPa | 0 mm | - | 111 W/m² | - |
| 1777559826 | 10.56° C | 96% | 1017.7 hPa | 0 mm | - | 85 W/m² | - |
| 1777559225 | 10° C | 97% | 1017.7 hPa | 0 mm | - | 71 W/m² | - |
| 1777558622 | 8.89° C | 98% | 1017.6 hPa | 0 mm | - | 57 W/m² | - |
| 1777558020 | 8.33° C | 98% | 1017.7 hPa | 0 mm | - | 47 W/m² | - |
| 1777557419 | 7.22° C | 98% | 1017.5 hPa | 0 mm | - | 37 W/m² | - |
| 1777556816 | 7.22° C | 98% | 1017.6 hPa | 0 mm | - | 29 W/m² | - |
| 1777556213 | 6.67° C | 98% | 1017.8 hPa | 0 mm | - | 19 W/m² | - |
| 1777555611 | 5.56° C | 98% | 1017.8 hPa | 0 mm | - | 11 W/m² | - |
| 1777555010 | 5.56° C | 98% | 1017.7 hPa | 0 mm | - | 4 W/m² | - |
| 1777554410 | 6.11° C | 98% | 1017.7 hPa | 0 mm | - | 0 W/m² | - |
| 1777553809 | 6.11° C | 98% | 1017.5 hPa | 0 mm | - | 0 W/m² | - |
| 1777553207 | 6.11° C | 98% | 1017.6 hPa | 0 mm | - | 0 W/m² | - |
| 1777552603 | 6.11° C | 97% | 1017.4 hPa | 0 mm | - | 0 W/m² | - |
| 1777552002 | 6.11° C | 97% | 1017.4 hPa | 0 mm | - | 0 W/m² | - |
* Rain latest hour (hover to see other rain measurements)
** Current wind speed in m/s (hover to see current wind gust speed)